Lafayette, LA

6:57 PM CDT on August 22, 2017 (GMT -0500)
Lafayette Regional

Weather History for KLFT - April, 2012

Change the Weather History Date:

Saturday, April 7, 2012

  Actual Average Record
Temperature  
Mean Temperature 70 °F 67 °F  
Max Temperature 82 °F 77 °F 92 °F (1910)
Min Temperature 57 °F 56 °F 35 °F (1971)
Degree Days  
Heating Degree Days 0 2  
Month to date heating degree days 0 17  
Since 1 July heating degree days 1029 1397  
Cooling Degree Days 5 4  
Month to date cooling degree days 55 26  
Year to date cooling degree days 294 121  
Growing Degree Days 19 (Base 50)    
Moisture  
Dew Point 59 °F    
Average Humidity 69    
Maximum Humidity 93    
Minimum Humidity 45    
Precipitation  
Precipitation 0.00 in 0.12 in 5.83 in (1942)
Month to date precipitation 2.15 0.81  
Year to date precipitation 19.69 14.72  
Snow  
Snow 0.00 in 0.00 in T in (2007)
Month to date snowfall 0.0 0.0  
Since 1 July snowfall 0.0 T  
Snow Depth 0.00 in    
Sea Level Pressure  
Sea Level Pressure 30.13 in    
Wind  
Wind Speed 2 mph (ENE)    
Max Wind Speed 7 mph    
Max Gust Speed 12 mph    
Visibility 10 miles    
Events      
T = Trace of Precipitation, MM = Missing Value Source: NWS Daily Summary

Daily Weather History Graph

Daily Weather History Graph

Search for Another Location

Airport or City:

Trip Planner

Search our weather history database for the weather conditions in past years. The results will help you decide how hot, cold, wet, or windy it might be!

Date:

Astronomy

Apr. 07, 2012 Rise Set
Actual Time 6:49 AM CDT 7:30 PM CDT
Civil Twilight 6:25 AM CDT 7:55 PM CDT
Nautical Twilight 5:56 AM CDT 8:23 PM CDT
Astronomical Twilight 5:27 AM CDT 8:52 PM CDT
Moon 8:54 PM CDT (4/7) 7:09 AM CDT (4/7)
Length of Visible Light 13h 29m
Length of Day
12h 41m
Full, 99% of the Moon is Illuminated
Apr 7
Full
Apr 13
Last Quarter
Apr 21
New
Apr 29
First Quarter
May 5
Full

Hourly Weather History & Observations

Time (CDT) Temp. Heat Index Dew Point Humidity Pressure Visibility Wind Dir Wind Speed Gust Speed Precip Events Conditions
12:53 AM 63.0 °F - 55.0 °F 75% 30.06 in 10.0 mi NE 3.5 mph - N/A   Clear
1:53 AM 62.6 °F - 55.4 °F 77% 30.06 in 10.0 mi Calm Calm - N/A   Clear
2:53 AM 60.1 °F - 55.0 °F 83% 30.06 in 10.0 mi NE 4.6 mph - N/A   Clear
3:53 AM 59.0 °F - 55.0 °F 87% 30.07 in 10.0 mi NE 4.6 mph - N/A   Clear
4:53 AM 57.9 °F - 55.0 °F 90% 30.07 in 10.0 mi Calm Calm - N/A   Clear
5:53 AM 57.9 °F - 54.0 °F 87% 30.09 in 10.0 mi NE 4.6 mph - N/A   Clear
6:53 AM 57.0 °F - 54.0 °F 89% 30.11 in 10.0 mi Calm Calm - N/A   Clear
7:53 AM 60.1 °F - 55.9 °F 86% 30.14 in 10.0 mi NNE 3.5 mph - N/A   Clear
8:53 AM 64.9 °F - 57.0 °F 75% 30.16 in 10.0 mi Variable 3.5 mph - N/A   Clear
9:53 AM 70.0 °F - 60.1 °F 71% 30.16 in 10.0 mi Variable 5.8 mph - N/A   Clear
10:53 AM 73.9 °F - 61.0 °F 64% 30.17 in 10.0 mi Variable 4.6 mph - N/A   Clear
11:53 AM 75.9 °F - 59.0 °F 56% 30.16 in 10.0 mi Variable 3.5 mph - N/A   Clear
12:53 PM 78.1 °F - 60.1 °F 54% 30.15 in 10.0 mi Calm Calm - N/A   Mostly Cloudy
1:53 PM 79.0 °F - 59.0 °F 50% 30.14 in 10.0 mi South 5.8 mph - N/A   Partly Cloudy
2:53 PM 80.1 °F 80.6 °F 57.9 °F 47% 30.12 in 10.0 mi Variable 3.5 mph - N/A   Scattered Clouds
3:53 PM 81.0 °F 81.3 °F 59.0 °F 47% 30.10 in 10.0 mi ESE 4.6 mph - N/A   Mostly Cloudy
4:53 PM 80.1 °F 80.6 °F 57.9 °F 47% 30.12 in 10.0 mi ENE 4.6 mph - N/A   Scattered Clouds
5:53 PM 78.1 °F - 60.1 °F 54% 30.12 in 10.0 mi Calm Calm - N/A   Clear
6:53 PM 73.9 °F - 64.0 °F 71% 30.13 in 10.0 mi Calm Calm - N/A   Clear
7:53 PM 72.0 °F - 66.0 °F 81% 30.14 in 10.0 mi Calm Calm - N/A   Clear
8:53 PM 71.1 °F - 61.0 °F 70% 30.17 in 10.0 mi Calm Calm - N/A   Clear
9:53 PM 70.0 °F - 64.9 °F 84% 30.18 in 10.0 mi Calm Calm - N/A   Overcast
10:53 PM 68.0 °F - 63.0 °F 84% 30.17 in 10.0 mi SSE 3.5 mph - N/A   Clear
11:53 PM 68.0 °F - 64.0 °F 87% 30.18 in 10.0 mi Calm Calm - N/A   Clear